STARLINK-1090 (44968 NORAD) Tracking and Keplerian Element Data

This shows tracking and keplerian element data for the satellite.

Feedback or suggestion? Click here.




ElementValue
Catalog44968
NameSTARLINK-1090
Epoch Orbit1272
Epoch Day87.91667824
Epoch Year2020
RAAN355.8377
Inclination53.0002
Eccentricity0.0001197
Argument of Perigee69.9027
Mean Anonmoly147.2966
Mean Motion15.62767759
Decay Rate-0.00022023
L11 44968U 20001BG 20087.91667824 -.00022023 00000-0 -23519-3 0 9998
L22 44968 53.0002 355.8377 0001197 69.9027 147.2966 15.62767759 12724

Live tracking and technical data element details for STARLINK-1090 (NORAD 44968). STARLINK-1090 can be tracked NOW for your location showing map with azimuth and elevation plus other details from your city location.

Track the satellite on the map from your city or location and see movement details for azimuth, elevation, latitude, longitude, range, height, and movement on the map or in text.







IsCatalogInMostPopularTable: catalog: 44968, numindb: 23
Update: records affected: 1



GetName: 44968 STARLINK-1090

Hit Count: updated at: Sat, 28 Mar 2020 20:18:18 GMT